Wetbulb
71.49 70.93 65.68 62.37 53.65 53.55 49.46 52.92 58.24 57.18 56.30 59.42 60.88 59.98 59.36 61.12 56.96 51.60 67.67 71.21 72.76 72.33 73.31 74.29 75.37 75.19 75.06 75.39 75.27 75.27 75.47 75.64 75.67 75.82 75.64 76.12 76.25 75.83 76.09 76.10 76.22 76.15 75.00 74.74 74.65 74.77 74.64 74.27 74.17
64.89 66.08 62.70 58.61 50.09 46.34 48.03 54.66 54.18 58.31 61.06 61.71 61.58 60.89 60.21 59.57 65.82 66.88 67.83 72.09 72.71 72.26 71.82 72.66 74.61 74.51 74.36 74.21 73.86 74.34 74.39 74.08 73.96 74.11 74.16 74.44 74.57 74.66 74.60 74.70 74.45 74.32 73.30 72.78 73.00 73.59 73.73 73.40 73.09
58.56 61.11 57.60 55.86 50.32 47.33 49.00 56.41 55.59 60.56 62.73 60.49 59.57 63.33 61.92 61.64 66.89 67.35 70.67 72.31 71.87 70.68 70.91 72.13 73.81 73.75 73.34 73.07 72.31 72.50 72.77 72.46 71.83 72.28 72.59 72.49 72.53 72.64 72.83 73.13 73.16 73.30 73.46 73.75 73.44 73.59 73.69 74.07 73.52
56.30 59.28 57.74 51.87 49.62 51.63 54.94 56.18 58.59 58.97 60.89 62.57 61.64 59.23 63.48 67.35 67.33 69.57 72.06 72.00 70.54 69.73 70.54 72.58 72.90 72.99 71.87 70.53 71.02 70.68 70.29 70.10 70.10 70.76 71.12 71.40 70.44 71.52 72.40 71.69 70.98 69.68 70.15 71.68 72.19 72.24 72.90 73.44 73.35
55.49 54.47 49.38 48.38 49.75 54.87 56.27 58.06 58.86 57.81 59.03 59.47 60.72 59.28 59.91 66.87 70.04 70.71 71.21 71.46 69.90 69.01 68.99 68.80 72.28 72.16 71.97 70.70 70.13 69.79 69.44 69.08 68.46 68.46 68.12 68.31 68.11 69.01 69.87 68.66 68.58 68.43 68.38 67.61 68.74 69.72 70.91 72.00 72.72
53.34 54.07 46.91 45.60 49.57 54.67 57.08 59.35 59.97 58.53 60.11 60.38 59.89 59.38 59.80 68.27 68.48 68.94 70.74 69.97 70.26 69.08 68.28 66.16 71.31 72.30 71.99 70.76 70.09 69.84 69.14 68.63 67.63 66.57 65.99 66.18 65.92 65.81 66.43 66.42 66.63 67.00 67.43 67.95 67.98 67.68 68.44 68.76 69.97
50.40 49.80 46.67 47.79 50.55 52.66 56.03 58.97 58.81 59.33 59.02 60.00 62.04 57.44 60.96 65.60 67.15 68.35 68.73 68.65 69.19 68.47 65.87 65.25 66.31 67.98 70.86 70.75 69.90 69.10 68.27 67.50 66.39 65.45 64.52 63.67 63.90 63.56 64.03 64.29 65.07 65.34 65.35 66.04 66.57 67.12 67.46 68.39 67.97
52.04 52.19 49.15 49.68 50.53 52.10 58.17 58.65 60.75 60.67 59.67 64.82 64.19 57.36 57.83 63.48 66.05 67.11 67.50 67.41 67.35 66.80 65.51 63.29 63.11 63.72 65.21 65.48 69.18 67.89 66.70 65.74 65.03 64.14 63.05 61.55 60.57 61.24 61.64 62.54 63.41 64.11 63.69 64.19 64.51 64.20 64.12 63.32 63.41
51.44 46.53 46.75 49.78 51.64 52.57 57.51 57.18 61.29 64.09 61.52 62.55 62.87 62.36 63.69 65.76 65.89 65.26 64.61 63.91 63.81 64.85 63.13 62.61 62.18 61.66 63.94 63.03 66.22 65.39 65.22 63.36 61.43 60.19 60.77 55.35 52.54 53.50 54.52 60.45 61.32 61.89 61.68 62.08 62.01 61.68 61.00 59.97 59.22
48.53 42.97 47.21 53.74 55.64 55.18 58.28 59.36 60.90 60.50 60.04 59.97 61.39 61.81 64.23 64.87 63.99 62.41 60.42 60.84 61.48 60.89 61.36 60.80 60.90 61.59 61.61 62.41 59.39 56.86 56.58 54.10 53.08 52.36 51.97 51.08 49.74 52.77 54.40 56.84 58.45 58.80 58.69 59.08 59.24 58.89 57.90 55.68 52.39
51.49 48.94 52.59 57.31 58.75 60.58 59.69 59.31 61.91 59.47 56.64 59.95 59.03 59.65 63.02 62.65 61.76 60.65 61.42 61.47 59.53 59.47 60.13 60.10 60.33 60.58 59.91 58.50 57.64 56.50 54.40 52.90 52.38 51.65 50.39 49.03 49.47 48.00 49.07 49.78 50.02 49.90 54.66 51.81 53.50 52.42 51.64 50.55 51.24
52.27 56.23 57.65 59.48 62.03 60.59 59.40 59.58 59.73 59.98 59.61 63.08 62.71 61.55 61.65 60.69 59.79 60.59 59.89 58.03 59.22 59.56 59.65 60.13 60.09 59.43 59.16 57.33 55.63 54.79 53.05 51.64 50.64 50.45 49.60 48.09 47.30 46.69 47.15 48.08 48.24 48.53 49.09 49.06 50.23 50.74 50.38 50.05 50.65
52.51 55.88 57.07 60.85 60.83 59.94 59.15 58.09 59.08 58.96 62.88 63.75 63.88 61.80 59.91 58.99 58.33 59.24 59.26 59.59 59.25 59.27 60.09 60.29 59.94 58.40 58.16 55.97 54.15 52.75 50.85 50.07 49.72 49.38 49.15 48.13 46.74 45.94 46.62 46.82 47.33 47.26 47.78 47.95 48.56 49.67 49.54 49.15 49.78
54.66 56.59 56.86 59.16 58.58 59.24 58.14 57.72 60.11 60.29 63.84 63.02 63.17 62.56 61.92 59.81 57.97 58.08 59.44 59.19 58.83 59.16 58.68 58.51 56.40 55.45 56.62 54.78 51.86 50.64 49.40 48.88 48.83 48.51 48.32 47.61 46.50 45.74 45.78 46.02 46.11 46.54 46.95 47.34 47.84 48.58 48.56 48.30 48.96
56.72 54.32 56.14 56.42 56.73 57.66 59.54 56.03 57.47 61.73 63.24 61.77 62.49 62.64 59.56 59.20 59.27 59.11 60.07 59.28 59.24 58.02 56.74 56.29 55.12 53.55 54.39 52.58 51.86 50.56 50.23 49.21 47.98 47.82 47.93 47.70 46.63 45.55 45.05 45.40 45.72 46.39 46.93 47.59 48.07 48.36 48.68 47.78 48.89
53.38 52.38 48.65 53.28 56.39 57.73 56.80 50.85 58.20 62.28 61.88 60.52 61.86 60.54 58.63 58.73 59.49 60.18 60.40 59.14 57.76 55.91 54.76 54.69 56.24 52.99 52.71 51.44 50.66 50.35 49.35 48.35 47.62 47.39 47.57 48.17 48.02 46.56 45.32 45.42 45.86 46.80 47.20 47.65 47.38 46.96 47.25 46.73 46.49
50.89 46.66 48.37 52.67 55.93 55.87 54.07 53.11 58.23 61.54 60.64 54.91 56.69 57.67 58.18 58.27 58.94 59.91 60.21 58.58 57.50 56.00 53.69 53.16 52.66 51.70 51.36 50.21 49.83 49.25 48.41 47.52 47.22 47.16 47.15 47.92 48.61 48.36 45.29 45.48 46.27 47.09 46.91 46.44 46.60 45.89 45.47 45.07 45.88
46.93 48.11 48.04 48.94 53.63 54.41 52.36 53.80 57.38 59.66 59.15 55.00 55.68 56.99 57.69 57.96 58.62 59.91 59.52 58.17 57.72 55.70 54.02 53.86 53.03 51.15 50.17 49.73 48.68 48.06 47.19 46.90 46.76 46.99 47.31 47.74 48.00 48.01 45.62 45.71 46.32 46.87 46.33 46.13 45.97 44.91 45.97 45.09 45.09
51.45 50.40 49.91 50.33 55.52 52.82 52.23 52.64 56.58 58.81 59.09 55.15 54.42 56.53 57.12 57.92 59.74 59.68 58.38 57.79 56.42 55.06 53.77 53.65 52.11 52.35 51.54 48.28 47.56 46.71 45.23 45.57 45.88 46.39 47.79 47.70 47.52 47.93 45.83 45.71 46.25 46.75 45.83 45.27 45.91 44.91 44.51 44.35 45.26
51.19 49.33 47.80 51.77 54.92 52.78 51.62 51.10 54.22 58.02 58.48 57.83 55.40 56.51 57.24 57.99 58.28 58.17 57.51 56.81 55.89 54.87 53.22 52.05 52.77 53.17 51.95 49.18 48.95 47.64 46.68 46.57 46.75 46.78 46.70 47.56 47.85 47.71 47.56 46.24 46.37 46.35 45.86 45.72 45.38 44.48 43.76 43.46 45.07
47.95 48.80 49.07 49.49 53.14 52.89 51.00 49.45 51.56 54.07 58.44 59.37 57.79 57.20 57.99 58.10 57.44 57.58 56.67 55.91 55.89 54.46 53.99 52.55 51.97 51.59 49.68 48.48 47.86 46.61 45.74 44.96 44.45 44.84 45.55 46.85 47.94 48.10 47.45 47.54 47.18 46.39 45.72 45.07 44.68 44.91 43.99 42.42 43.95
43.01 50.22 51.31 51.02 48.77 43.88 50.24 42.29 47.04 50.74 54.09 56.77 58.02 55.94 57.46 58.35 58.62 57.91 56.93 55.58 55.78 54.67 55.07 53.38 51.44 50.90 48.76 47.75 46.55 45.08 43.71 43.47 44.43 45.02 45.61 47.05 48.27 48.24 48.91 49.18 48.46 46.87 45.83 45.45 45.18 47.20 44.17 42.87 42.26
46.28 49.31 48.36 48.33 47.63 45.15 47.78 43.57 47.12 52.68 51.65 53.96 56.14 56.01 57.52 58.85 58.13 57.53 56.67 55.98 55.72 55.43 53.89 53.55 50.57 48.34 47.56 46.78 45.67 45.19 44.11 44.46 45.98 46.28 46.02 46.98 47.39 48.40 49.81 48.95 48.11 47.07 46.49 45.89 45.72 45.26 44.94 43.32 45.64
50.17 47.07 43.79 41.52 39.91 37.38 41.76 43.34 42.09 49.81 52.49 55.64 58.77 57.44 57.62 58.34 58.46 57.82 57.11 56.08 54.49 54.30 53.80 53.30 50.42 47.87 47.31 47.09 46.43 45.97 45.48 44.90 45.48 45.98 46.16 46.89 46.91 47.38 48.37 48.61 47.50 46.96 46.43 46.08 45.72 45.01 45.22 44.39 43.61
45.05 41.19 34.89 33.88 33.29 34.56 41.29 41.80 43.47 52.20 56.29 57.37 58.08 57.49 57.94 58.63 58.01 56.58 54.97 53.99 53.13 52.81 53.15 52.41 49.17 47.90 47.69 47.85 46.98 46.98 46.25 45.55 45.72 46.29 46.35 46.12 46.03 46.03 47.05 46.62 46.75 46.25 46.12 46.19 45.83 44.59 44.54 44.70 44.06
42.40 41.62 35.82 31.25 31.57 34.99 43.96 41.57 46.58 55.85 57.74 58.98 59.23 58.32 58.28 58.20 57.66 56.34 55.12 53.68 52.53 52.92 51.87 51.82 48.99 47.77 47.30 46.87 46.43 46.71 46.48 46.39 46.84 46.73 46.57 46.12 45.47 46.06 46.82 47.20 46.77 46.09 45.88 45.48 45.29 43.87 44.55 44.66 44.53
41.65 39.62 43.41 37.66 35.74 34.85 38.80 47.51 52.85 55.59 55.13 56.93 57.50 57.90 57.51 57.99 57.00 56.54 55.47 54.03 53.09 52.52 51.40 50.53 49.11 47.57 47.23 47.04 46.46 46.80 46.68 46.80 47.03 46.98 46.04 46.32 45.89 47.62 47.87 47.16 46.01 45.07 43.75 43.59 43.65 44.33 44.12 43.44 44.37
44.13 45.69 38.70 36.14 31.64 29.74 35.98 44.57 44.55 51.36 52.46 54.18 56.35 57.48 57.64 58.23 57.31 56.62 56.28 54.32 53.54 52.13 51.03 49.43 49.61 48.25 47.76 47.53 46.62 46.56 46.25 47.43 47.76 46.47 46.89 45.99 46.00 45.83 46.61 46.57 44.96 43.98 43.11 42.21 41.99 42.83 44.22 43.47 44.15
41.84 39.97 40.99 39.53 37.64 34.10 33.76 40.52 50.73 52.31 54.31 53.72 55.35 57.37 57.69 58.01 56.97 57.17 56.59 54.24 53.02 51.67 50.36 49.48 48.90 47.91 47.44 46.99 46.31 46.27 46.71 47.61 48.08 47.34 46.82 45.85 45.88 46.22 46.78 47.17 45.43 44.19 42.12 41.87 42.17 43.12 44.61 44.19 43.89
43.26 42.51 41.54 36.70 35.35 39.13 37.98 40.05 50.37 52.97 54.48 56.13 56.30 57.57 58.29 57.33 57.82 55.83 52.48 51.62 50.72 49.81 49.76 49.26 49.03 48.43 47.81 46.94 47.37 47.07 47.06 47.45 47.44 46.48 46.48 46.64 45.95 46.59 47.21 47.32 45.97 44.73 42.02 41.05 41.97 43.42 44.48 44.33 44.35
MSLP
1010.56 1010.88 1010.96 1011.21 1012.31 1012.63 1013.36 1013.28 1012.77 1012.75 1012.88 1013.14 1012.86 1013.26 1014.01 1014.49 1015.02 1016.31 1016.12 1016.12 1016.19 1016.36 1016.27 1016.22 1016.06 1016.02 1015.98 1016.08 1016.01 1016.03 1016.01 1016.03 1016.10 1016.12 1016.10 1016.22 1016.25 1016.31 1016.40 1016.41 1016.43 1016.42 1016.57 1016.61 1016.66 1016.68 1016.64 1016.69 1016.54
1010.35 1010.92 1011.04 1011.77 1012.80 1013.71 1013.99 1013.53 1013.22 1012.75 1013.06 1013.26 1013.03 1013.53 1013.95 1014.98 1015.22 1015.85 1016.20 1016.34 1016.37 1016.48 1016.52 1016.50 1016.36 1016.30 1016.39 1016.38 1016.37 1016.46 1016.55 1016.54 1016.59 1016.63 1016.69 1016.77 1016.82 1016.79 1016.79 1016.78 1016.81 1016.82 1016.82 1016.74 1016.73 1016.68 1016.71 1016.71 1016.71
1010.37 1010.23 1011.27 1012.02 1013.48 1014.02 1013.76 1013.62 1013.41 1013.13 1013.00 1013.02 1013.50 1013.79 1014.20 1015.13 1015.52 1015.81 1015.98 1016.54 1016.72 1016.79 1016.86 1016.78 1016.66 1016.57 1016.60 1016.68 1016.83 1016.95 1017.02 1017.06 1017.10 1017.13 1017.09 1017.19 1017.22 1017.30 1017.34 1017.28 1017.28 1017.20 1017.15 1017.07 1016.97 1016.81 1016.68 1016.70 1016.61
1010.15 1010.77 1011.46 1011.88 1013.36 1013.88 1013.37 1013.27 1013.45 1013.44 1013.27 1013.24 1013.80 1014.25 1014.52 1014.59 1015.24 1015.70 1016.38 1016.67 1016.93 1017.08 1017.08 1017.06 1017.04 1017.06 1017.10 1017.21 1017.32 1017.44 1017.53 1017.61 1017.71 1017.71 1017.60 1017.66 1017.72 1017.57 1017.63 1017.63 1017.62 1017.55 1017.46 1017.31 1017.15 1017.04 1016.90 1016.54 1016.36
1010.07 1010.84 1011.89 1012.39 1012.72 1013.10 1013.23 1012.93 1013.24 1013.50 1013.51 1013.58 1013.79 1014.68 1014.90 1015.15 1015.42 1016.05 1016.64 1017.04 1017.26 1017.49 1017.45 1017.47 1017.33 1017.30 1017.34 1017.42 1017.61 1017.74 1017.85 1017.95 1018.05 1018.12 1018.24 1018.22 1018.18 1018.07 1017.96 1017.98 1017.93 1017.78 1017.52 1017.35 1017.32 1017.15 1017.03 1016.78 1016.61
1010.62 1011.42 1012.91 1013.21 1012.93 1012.46 1012.65 1012.47 1012.89 1013.43 1013.69 1013.77 1014.17 1014.70 1015.43 1015.56 1015.89 1016.66 1017.09 1017.53 1017.65 1017.69 1017.80 1017.76 1017.71 1017.66 1017.65 1017.75 1017.94 1018.07 1018.14 1018.22 1018.32 1018.47 1018.56 1018.57 1018.62 1018.61 1018.48 1018.40 1018.26 1018.03 1017.73 1017.45 1017.29 1017.04 1016.95 1016.87 1016.60
1010.82 1011.84 1012.83 1013.11 1012.85 1012.31 1012.16 1012.29 1012.83 1013.32 1013.57 1013.73 1013.82 1014.82 1015.87 1016.14 1016.33 1016.69 1017.39 1017.86 1018.01 1018.03 1018.15 1018.24 1018.31 1018.22 1018.13 1018.23 1018.30 1018.40 1018.48 1018.57 1018.70 1018.83 1018.96 1019.03 1018.97 1019.00 1018.91 1018.82 1018.62 1018.34 1018.10 1017.84 1017.65 1017.44 1017.21 1016.80 1016.82
1010.50 1011.62 1012.47 1012.71 1012.55 1012.07 1011.75 1012.14 1012.47 1013.30 1013.29 1013.39 1013.48 1014.45 1015.94 1016.07 1016.53 1017.08 1017.81 1018.29 1018.43 1018.45 1018.56 1018.69 1018.75 1018.75 1018.69 1018.77 1018.80 1018.90 1018.95 1019.03 1019.09 1019.24 1019.42 1019.54 1019.54 1019.35 1019.19 1019.03 1018.88 1018.57 1018.47 1018.25 1018.12 1017.93 1017.72 1017.53 1017.32
1010.26 1011.22 1011.95 1011.79 1011.94 1011.67 1011.56 1012.01 1012.39 1012.77 1013.31 1013.36 1013.33 1013.66 1014.47 1015.82 1016.72 1017.56 1018.38 1018.83 1018.91 1019.03 1019.12 1018.97 1019.00 1019.01 1019.01 1019.21 1019.32 1019.49 1019.56 1019.61 1019.74 1019.86 1019.80 1019.89 1019.90 1019.82 1019.84 1019.46 1019.28 1019.04 1018.92 1018.70 1018.45 1018.29 1018.06 1017.88 1017.70
1010.26 1011.18 1010.87 1010.27 1010.45 1011.02 1011.38 1011.81 1012.27 1012.78 1013.39 1013.59 1013.59 1014.20 1014.96 1015.90 1016.88 1017.71 1018.31 1018.85 1019.28 1019.47 1019.35 1019.19 1019.21 1019.30 1019.49 1019.67 1020.09 1020.35 1020.45 1020.55 1020.55 1020.56 1020.49 1020.37 1020.28 1020.00 1020.00 1019.82 1019.61 1019.47 1019.35 1019.11 1018.88 1018.68 1018.51 1018.34 1018.15
1009.89 1010.05 1009.40 1009.08 1009.35 1010.12 1011.51 1012.06 1012.31 1012.74 1013.56 1013.46 1013.43 1014.46 1015.26 1016.04 1016.93 1017.63 1018.43 1018.86 1019.19 1019.28 1019.20 1019.41 1019.39 1019.51 1019.81 1020.18 1020.56 1020.83 1020.94 1020.94 1020.92 1020.93 1020.90 1020.78 1020.61 1020.52 1020.38 1020.23 1020.05 1019.92 1019.63 1019.51 1019.20 1018.97 1018.72 1018.52 1018.25
1008.97 1008.47 1008.32 1008.55 1009.19 1010.21 1011.20 1011.74 1012.37 1012.61 1012.51 1012.84 1013.36 1014.03 1015.17 1016.06 1016.78 1017.37 1018.05 1018.75 1019.17 1019.38 1019.53 1019.57 1019.67 1019.85 1020.14 1020.30 1020.85 1021.09 1021.28 1021.36 1021.34 1021.24 1021.04 1020.91 1020.84 1020.76 1020.68 1020.56 1020.33 1020.13 1019.90 1019.66 1019.37 1019.08 1018.81 1018.59 1018.31
1008.35 1008.30 1008.51 1008.28 1009.32 1010.29 1011.21 1011.65 1012.04 1012.34 1012.35 1012.83 1013.69 1014.52 1015.21 1016.02 1016.75 1017.46 1017.83 1018.53 1019.16 1019.46 1019.51 1019.62 1019.48 1019.75 1020.09 1020.51 1021.03 1021.38 1021.56 1021.65 1021.65 1021.47 1021.31 1021.17 1021.10 1021.10 1020.96 1020.73 1020.47 1020.28 1020.01 1019.77 1019.49 1019.15 1018.88 1018.61 1018.27
1008.02 1008.42 1009.12 1009.35 1009.99 1010.64 1011.28 1011.75 1011.74 1012.19 1012.38 1013.15 1013.56 1014.32 1015.15 1015.64 1016.34 1017.24 1017.93 1018.53 1019.10 1019.48 1019.50 1019.63 1019.70 1019.69 1019.93 1020.59 1021.22 1021.54 1021.77 1021.98 1022.01 1021.84 1021.68 1021.44 1021.34 1021.36 1021.31 1020.99 1020.76 1020.44 1020.23 1019.92 1019.65 1019.35 1019.01 1018.59 1018.13
1008.20 1009.20 1009.68 1010.08 1010.24 1010.76 1011.22 1012.20 1011.79 1011.91 1012.57 1013.12 1013.54 1014.05 1014.83 1015.65 1016.43 1016.92 1017.59 1018.25 1018.96 1019.33 1019.46 1019.72 1019.62 1019.69 1019.99 1020.75 1021.38 1021.90 1022.11 1022.24 1022.16 1022.04 1021.82 1021.44 1021.30 1021.36 1021.24 1021.13 1020.93 1020.59 1020.26 1019.98 1019.62 1019.31 1018.89 1018.48 1017.90
1008.94 1009.55 1010.28 1010.34 1010.36 1010.72 1011.17 1011.48 1011.48 1011.82 1012.58 1013.40 1013.94 1014.51 1015.08 1015.65 1016.07 1016.87 1017.73 1018.29 1018.81 1019.41 1020.13 1020.28 1020.19 1020.20 1020.60 1021.07 1021.72 1022.03 1022.34 1022.48 1022.48 1022.23 1021.93 1021.61 1021.40 1021.33 1021.32 1021.22 1020.95 1020.61 1020.29 1020.08 1019.78 1019.45 1018.93 1018.49 1018.03
1009.82 1010.22 1010.55 1010.67 1010.52 1010.77 1011.10 1011.09 1011.11 1011.83 1012.49 1013.38 1014.12 1014.93 1015.43 1015.94 1016.55 1016.81 1017.40 1018.03 1018.76 1019.48 1019.79 1019.90 1020.44 1021.11 1021.23 1021.69 1022.10 1022.45 1022.61 1022.62 1022.51 1022.33 1022.13 1021.97 1021.80 1021.68 1021.67 1021.35 1020.93 1020.64 1020.44 1020.15 1019.87 1019.39 1019.09 1018.64 1018.03
1009.64 1010.09 1010.36 1010.29 1010.38 1010.51 1010.67 1010.54 1010.69 1011.35 1012.13 1012.75 1013.43 1014.14 1014.92 1015.85 1016.46 1017.00 1017.60 1018.31 1019.33 1019.87 1019.69 1019.64 1020.10 1020.97 1021.29 1022.28 1022.71 1022.80 1022.95 1022.75 1022.55 1022.54 1022.43 1022.20 1021.98 1021.77 1021.75 1021.61 1021.18 1020.75 1020.61 1020.23 1019.83 1019.43 1018.96 1018.76 1018.27
1008.72 1009.14 1009.61 1009.28 1009.07 1009.80 1010.06 1010.48 1010.42 1010.61 1011.61 1012.39 1012.81 1013.52 1014.50 1015.67 1016.64 1017.38 1018.11 1018.58 1019.12 1019.76 1020.15 1019.90 1020.09 1021.28 1022.10 1022.55 1022.96 1023.19 1023.01 1022.87 1022.80 1022.74 1022.56 1022.27 1022.07 1021.84 1021.83 1021.71 1021.47 1021.01 1020.72 1020.39 1019.94 1019.52 1019.21 1018.74 1018.28
1008.39 1008.73 1008.90 1008.72 1008.81 1009.67 1010.00 1009.88 1010.10 1010.35 1010.47 1010.95 1011.79 1013.06 1014.28 1015.55 1016.70 1017.69 1018.60 1019.51 1019.66 1019.57 1020.00 1020.31 1020.62 1020.96 1021.22 1022.26 1022.53 1022.66 1022.81 1022.97 1022.89 1022.72 1022.37 1022.19 1021.99 1021.80 1021.65 1021.55 1021.42 1021.21 1020.89 1020.40 1020.08 1019.80 1019.60 1019.22 1018.62
1008.03 1008.24 1008.39 1008.67 1009.01 1009.62 1010.29 1010.27 1010.11 1010.35 1010.40 1010.97 1011.60 1012.56 1013.73 1014.74 1015.94 1017.55 1018.46 1019.35 1020.14 1020.27 1019.97 1020.54 1020.64 1020.98 1021.39 1021.89 1022.46 1022.92 1023.00 1023.38 1023.27 1022.91 1022.51 1022.18 1021.89 1021.57 1021.43 1021.38 1021.21 1021.02 1020.82 1020.52 1020.15 1019.82 1019.68 1019.58 1018.79
1007.54 1007.27 1007.95 1008.85 1010.03 1010.49 1010.63 1010.83 1010.12 1010.30 1010.61 1010.83 1011.56 1012.24 1012.85 1013.46 1015.71 1016.46 1017.67 1018.82 1019.43 1019.68 1019.98 1020.60 1020.94 1021.47 1021.45 1021.91 1022.53 1023.03 1023.24 1023.35 1023.33 1023.05 1022.76 1022.34 1021.88 1021.64 1021.33 1021.24 1021.07 1020.84 1020.63 1020.32 1019.99 1019.71 1019.58 1019.44 1019.14
1006.78 1006.98 1008.01 1008.81 1010.03 1011.02 1011.47 1011.72 1010.26 1010.44 1010.75 1010.92 1010.92 1011.32 1011.88 1013.28 1014.36 1015.76 1016.85 1017.95 1018.75 1019.33 1019.98 1020.69 1020.99 1021.68 1021.80 1022.19 1022.50 1022.88 1023.14 1023.21 1023.20 1023.13 1023.03 1022.67 1022.08 1021.71 1021.48 1021.32 1021.10 1020.74 1020.43 1020.20 1019.93 1019.59 1019.42 1019.29 1019.12
1006.42 1007.09 1008.27 1009.59 1010.98 1011.80 1011.27 1011.66 1010.49 1010.42 1009.66 1009.68 1010.31 1010.42 1011.67 1012.72 1013.80 1015.04 1016.25 1017.39 1018.55 1019.50 1020.01 1020.35 1021.01 1021.89 1021.65 1022.17 1022.42 1022.68 1022.92 1023.18 1023.41 1023.07 1022.94 1022.61 1022.22 1021.93 1021.61 1021.38 1021.23 1020.80 1020.42 1020.22 1019.87 1019.63 1019.31 1019.09 1018.94
1006.73 1008.13 1009.57 1011.09 1012.12 1011.90 1011.32 1011.92 1010.36 1008.81 1008.59 1008.85 1009.06 1010.11 1011.51 1012.91 1013.74 1014.74 1016.01 1017.23 1018.27 1019.19 1019.78 1020.23 1020.94 1021.83 1021.72 1022.03 1022.41 1022.57 1022.79 1023.04 1023.13 1022.98 1022.87 1022.73 1022.52 1022.21 1021.88 1021.68 1021.43 1021.06 1020.57 1020.15 1019.78 1019.58 1019.28 1019.03 1018.85
1006.69 1007.82 1009.41 1010.62 1011.96 1011.69 1011.51 1010.86 1008.77 1008.06 1008.50 1009.08 1009.68 1010.54 1011.41 1012.26 1013.77 1014.70 1015.61 1016.66 1017.69 1018.73 1019.30 1019.70 1020.94 1021.71 1021.84 1022.03 1022.41 1022.45 1022.52 1023.06 1022.98 1022.93 1022.81 1022.73 1022.65 1022.39 1021.88 1021.55 1021.35 1020.99 1020.58 1020.19 1019.83 1019.68 1019.35 1019.07 1018.82
1006.42 1007.50 1008.00 1009.89 1011.34 1011.76 1010.97 1009.80 1008.19 1008.11 1008.73 1009.53 1010.19 1010.81 1011.50 1012.60 1013.34 1014.13 1015.18 1016.03 1017.08 1018.08 1018.69 1019.19 1020.49 1021.48 1021.66 1021.94 1022.28 1022.30 1022.36 1022.65 1022.76 1022.62 1022.76 1022.72 1022.44 1022.16 1021.83 1021.59 1021.38 1021.12 1020.80 1020.36 1019.97 1019.71 1019.45 1019.14 1018.85
1005.31 1006.21 1008.15 1010.03 1011.15 1011.80 1011.10 1010.03 1008.59 1008.26 1008.59 1009.29 1010.12 1010.34 1011.04 1012.10 1013.17 1014.12 1014.83 1015.70 1016.72 1017.59 1018.37 1019.05 1020.03 1020.90 1021.38 1021.68 1021.92 1022.14 1022.26 1022.29 1022.36 1022.59 1022.64 1022.66 1022.34 1022.06 1021.90 1021.62 1021.40 1021.27 1020.90 1020.52 1020.15 1019.74 1019.41 1019.15 1018.80
1005.62 1006.21 1007.52 1009.04 1010.17 1010.83 1010.73 1009.66 1007.07 1006.79 1007.19 1008.21 1008.96 1009.84 1010.51 1011.65 1012.74 1013.69 1014.43 1015.47 1016.29 1017.20 1018.09 1018.73 1019.85 1020.64 1021.22 1021.52 1021.79 1021.97 1022.16 1022.12 1022.29 1022.46 1022.40 1022.43 1022.28 1022.07 1021.94 1021.71 1021.49 1021.29 1021.03 1020.69 1020.27 1019.75 1019.38 1019.14 1018.79
1004.71 1005.47 1006.74 1008.70 1009.62 1010.05 1009.52 1007.66 1005.86 1006.15 1006.50 1007.51 1008.67 1009.42 1010.43 1011.35 1012.41 1013.46 1014.45 1015.28 1016.13 1016.86 1017.81 1018.45 1019.57 1020.22 1020.87 1021.07 1021.43 1021.87 1022.04 1022.06 1022.21 1022.18 1022.24 1022.12 1022.10 1021.86 1021.70 1021.54 1021.44 1021.20 1020.98 1020.67 1020.30 1019.87 1019.38 1019.10 1018.74
Wind_Speed
7 6 2 3 5 7 2 2 3 1 4 4 6 6 7 5 3 4 2 6 6 4 5 6 11 14 16 16 17 17 17 17 17 17 13 11 9 9 8 6 6 6 6 4 4 5 6 6 5
4 4 3 3 6 4 2 2 4 5 13 11 11 10 10 5 5 8 5 6 6 6 5 5 12 14 16 17 18 18 18 17 17 16 15 14 12 11 10 9 8 6 4 2 1 3 5 6 6
2 3 4 4 3 4 4 3 3 11 14 2 4 4 4 3 8 8 9 9 7 6 4 7 14 16 18 20 20 19 20 20 20 17 16 15 13 11 10 10 9 8 7 7 6 6 6 7 8
2 3 3 5 3 2 4 5 5 3 3 8 6 6 5 5 7 7 13 11 9 6 5 10 15 16 18 19 19 20 21 21 22 23 19 18 19 13 12 12 12 12 11 9 7 7 9 10 11
3 3 5 4 5 5 3 1 7 4 1 5 2 4 3 3 13 15 12 10 9 6 5 7 14 15 16 18 18 19 19 19 20 20 20 20 21 22 17 17 17 16 12 9 9 10 12 13 13
4 4 6 1 4 2 5 5 6 3 2 5 11 7 2 10 14 11 10 7 6 8 6 6 12 13 15 17 17 17 18 18 19 20 19 18 18 18 17 17 17 17 18 15 13 12 12 10 13
6 4 5 5 3 5 5 7 7 6 6 5 8 5 4 7 9 11 8 6 5 5 5 4 4 9 15 15 16 16 17 17 18 19 18 18 17 17 16 16 16 17 16 16 17 19 22 18 18
5 4 4 4 5 4 5 6 9 8 3 10 10 6 7 8 12 11 8 5 5 5 4 4 5 5 6 5 14 16 16 17 18 18 18 17 17 16 16 16 16 16 16 15 16 17 18 18 18
4 5 1 5 7 3 5 5 5 4 10 4 5 5 12 17 14 12 8 5 5 4 2 4 5 5 6 5 8 12 16 18 17 14 17 12 5 6 10 14 16 16 15 15 15 16 17 17 16
5 3 7 8 8 6 7 8 12 6 11 2 9 13 17 19 16 15 12 10 5 5 4 4 5 5 5 6 6 6 9 6 6 6 6 5 6 7 9 12 16 15 16 15 15 15 14 11 4
6 7 8 6 9 14 9 7 3 14 5 10 19 19 21 20 16 15 11 9 6 5 4 5 6 6 6 5 4 3 3 3 4 6 5 4 4 4 4 3 4 3 10 4 5 5 3 5 4
4 4 7 7 10 11 14 8 5 9 6 14 17 20 17 18 15 14 12 9 9 6 6 6 6 6 6 4 4 4 4 3 3 4 5 4 3 4 4 3 4 4 3 4 4 3 4 5 5
4 2 3 11 13 9 9 6 7 7 8 12 16 18 16 15 12 9 10 9 7 7 6 6 6 6 6 6 5 4 4 3 4 4 5 4 4 4 3 4 4 4 4 4 4 5 5 4 4
3 6 4 9 8 8 6 5 8 5 13 13 15 16 17 16 14 10 12 10 6 7 7 6 6 6 7 6 6 4 4 4 4 3 3 4 4 4 4 4 4 4 4 4 4 4 4 5 5
5 9 6 6 4 5 7 2 5 8 14 16 16 13 9 13 16 17 15 13 11 7 7 7 7 6 8 8 7 5 4 4 3 2 3 5 5 5 4 4 4 4 4 6 5 4 4 4 5
5 7 6 2 5 4 5 6 5 12 15 13 14 10 11 12 17 16 13 12 9 8 8 7 6 7 8 8 5 4 4 3 2 2 3 6 5 5 4 4 4 4 4 4 4 4 4 4 4
6 6 4 1 5 4 6 4 7 12 12 10 9 12 13 13 11 13 13 12 11 11 10 9 7 7 8 7 5 5 4 3 1 2 3 5 5 5 4 4 4 5 4 4 4 3 2 4 6
6 6 2 6 9 8 6 5 9 14 11 15 14 15 16 15 14 11 12 12 11 9 8 9 9 8 8 5 4 4 3 2 2 2 2 4 3 4 4 4 5 4 4 4 5 4 3 3 4
7 7 8 6 7 5 11 7 13 17 12 13 16 15 15 15 10 11 11 13 12 8 6 8 10 7 5 2 3 1 2 0 1 2 3 3 3 4 4 4 5 5 4 5 5 4 4 3 3
4 6 4 4 3 4 1 5 9 16 19 19 20 17 17 13 13 13 12 8 5 9 8 7 7 6 6 3 2 3 2 1 1 2 4 4 4 4 3 3 4 5 4 6 5 4 4 3 3
4 6 5 5 3 3 3 9 4 6 7 15 14 16 16 18 19 13 13 9 8 8 8 7 7 7 5 6 4 3 3 3 3 2 3 4 6 6 5 4 3 4 3 4 4 3 4 3 3
3 8 4 4 4 5 4 6 5 3 9 14 14 15 18 19 14 16 15 13 10 8 8 6 7 5 6 6 4 3 3 2 2 2 2 4 5 6 5 5 4 4 4 5 4 3 2 2 4
10 8 8 6 5 4 0 3 8 4 2 7 14 17 20 17 19 19 16 13 10 10 9 6 7 6 6 6 6 4 3 1 1 1 4 4 4 4 5 5 5 4 3 4 5 5 4 1 2
2 1 7 6 4 1 7 7 8 6 9 11 9 18 17 19 20 17 16 14 11 8 8 8 8 6 7 6 6 6 5 2 1 2 2 3 3 4 5 5 5 5 4 5 5 4 4 4 3
6 7 4 5 2 8 4 4 12 8 9 8 18 12 14 15 18 18 19 15 13 12 11 9 8 7 6 6 5 5 4 2 1 1 2 3 3 2 5 5 6 4 5 5 5 4 5 4 3
7 11 8 8 5 7 5 7 10 3 3 3 6 9 15 17 14 16 17 16 15 14 12 10 9 7 6 6 5 5 5 2 1 2 2 2 2 4 4 5 4 5 6 6 5 3 4 5 4
5 4 6 5 2 3 5 7 9 5 4 4 6 8 14 14 17 18 18 16 16 15 14 13 10 7 7 7 5 5 4 3 2 2 2 3 3 4 5 4 4 4 6 6 6 3 5 4 4
8 8 3 3 2 5 4 5 8 6 11 9 13 14 15 14 17 16 16 16 14 13 10 10 10 10 7 7 6 5 4 3 3 1 3 4 4 3 5 5 4 5 6 6 6 4 4 5 4
2 2 5 6 6 7 3 8 9 11 11 17 13 14 14 16 17 16 14 14 14 12 11 11 10 9 7 7 6 5 4 3 2 3 3 3 4 4 5 4 4 4 6 6 6 5 5 6 5
6 7 8 6 7 2 4 8 5 7 8 8 8 8 12 14 16 12 12 14 14 13 12 12 11 9 8 7 6 6 5 3 3 3 3 3 4 4 4 4 4 4 5 6 6 6 6 5 5
Wind_Direction
178 173 186 47 52 67 37 344 347 86 77 24 75 87 92 30 83 160 99 114 112 100 72 79 82 80 79 73 71 69 67 62 59 60 68 79 78 91 96 105 128 136 139 141 154 156 164 169 167
182 171 34 68 76 80 268 305 51 81 122 121 85 68 53 75 62 121 113 130 118 109 85 85 94 87 81 75 71 69 66 63 61 58 60 60 62 66 60 54 47 49 56 53 313 226 217 214 215
216 207 95 100 107 139 142 111 144 131 146 148 86 66 79 82 111 136 122 125 112 95 94 102 96 88 85 80 74 68 63 59 54 53 57 53 51 49 52 50 43 33 23 15 352 336 316 281 255
186 41 22 79 117 194 131 141 158 155 92 64 118 71 65 122 153 130 127 130 113 111 107 108 103 98 95 91 82 75 68 64 59 52 56 42 37 38 44 51 42 34 13 358 342 327 319 310 290
53 62 48 38 348 118 228 130 150 156 38 111 120 111 73 51 107 123 129 126 130 119 110 109 118 111 103 93 86 79 73 66 61 56 52 49 45 40 32 35 27 23 6 5 341 342 343 328 318
31 99 56 138 282 214 115 189 126 123 152 132 113 103 85 132 123 127 119 130 136 127 132 126 124 112 103 96 89 79 71 63 58 55 52 47 44 40 40 32 25 18 21 17 4 347 343 321 324
116 90 175 159 254 335 147 140 123 142 151 124 144 101 110 133 134 125 125 116 132 112 118 96 78 107 102 95 88 80 73 67 60 56 54 46 39 37 32 29 26 23 24 27 27 32 27 21 19
104 97 120 194 170 246 124 136 149 160 181 140 142 151 169 162 139 116 117 125 116 93 91 101 68 54 74 75 85 79 75 69 64 59 53 48 40 37 29 29 25 33 29 33 31 28 26 22 23
136 54 212 186 151 204 128 123 133 165 140 201 195 135 140 142 125 120 125 110 96 119 149 130 117 90 90 70 84 77 78 72 64 54 51 41 27 23 29 29 35 35 32 30 28 24 22 18 12
108 118 220 197 172 167 164 150 148 128 157 0 94 97 132 140 141 147 154 155 153 171 193 173 124 116 77 80 76 69 77 65 65 61 46 41 28 33 43 36 37 32 32 24 24 22 21 17 355
178 199 205 228 167 126 143 143 112 140 201 189 149 144 147 147 153 154 156 165 162 153 95 117 115 108 108 106 98 76 66 60 60 63 59 50 48 34 24 18 19 8 24 8 11 5 2 355 345
184 216 170 141 127 132 161 130 121 171 223 166 152 148 149 155 158 160 152 146 150 143 143 116 121 126 112 95 96 105 97 72 69 58 50 45 34 33 27 23 10 12 352 353 347 338 326 326 320
177 155 1 128 132 129 131 175 165 232 158 147 148 151 157 160 155 150 138 138 141 141 138 128 109 97 101 99 105 91 84 74 68 55 46 40 42 42 20 8 10 5 353 355 345 341 337 325 316
166 71 69 121 125 146 162 162 123 236 148 152 164 174 167 164 154 133 146 148 140 139 122 124 104 102 108 104 102 102 90 84 63 52 40 45 53 36 20 12 6 357 351 333 329 324 326 322 322
145 88 78 40 115 143 112 105 231 164 162 165 182 175 150 153 152 156 156 151 148 136 125 123 107 97 99 103 105 93 92 87 78 54 25 51 52 40 29 12 356 346 339 335 343 331 325 333 328
65 56 92 262 119 184 136 240 181 172 164 177 187 162 150 163 160 153 151 143 132 106 82 52 63 74 91 102 101 103 98 83 66 41 24 36 39 39 24 9 358 338 345 337 333 325 322 321 312
10 139 133 132 223 148 175 224 177 171 175 153 158 155 161 153 154 150 148 138 125 122 126 111 91 74 89 89 95 97 105 98 82 37 30 13 12 17 14 357 344 347 340 338 332 320 332 325 327
176 122 217 181 212 202 210 208 168 170 171 163 160 169 169 165 166 153 139 131 127 137 131 119 103 101 107 103 96 87 86 68 44 31 31 13 353 2 4 348 346 353 341 337 336 325 328 292 298
137 134 176 229 187 170 201 187 186 178 175 166 177 176 169 171 149 145 142 140 137 132 128 114 114 108 109 102 116 91 140 87 13 332 331 355 344 338 336 333 333 342 352 325 333 322 332 316 324
146 163 216 259 154 212 85 250 199 187 194 187 184 173 173 157 151 151 147 147 151 140 132 113 112 135 129 145 171 162 170 186 246 286 306 313 323 322 316 331 332 327 326 338 336 346 327 295 324
201 178 219 215 35 78 50 303 161 220 212 198 197 178 172 172 167 163 156 149 146 149 126 124 123 125 111 112 109 70 53 24 338 318 312 321 326 323 324 325 323 329 319 315 311 320 346 308 304
227 210 202 178 101 236 137 261 287 212 222 204 186 173 178 183 162 160 160 160 165 146 118 128 123 122 117 128 117 144 146 164 249 278 294 308 337 337 339 338 327 329 323 337 318 321 287 312 312
233 139 184 177 180 127 195 101 267 46 151 180 189 184 191 171 163 170 165 156 144 140 146 140 120 133 132 138 140 138 131 117 296 301 330 326 332 343 337 340 326 319 319 324 333 344 338 315 291
269 68 48 53 100 188 224 152 276 195 195 202 195 201 173 169 172 164 150 146 143 146 151 148 137 171 144 147 151 142 133 146 1 354 343 331 325 331 331 332 322 317 330 331 323 325 336 327 315
90 67 328 337 2 229 176 112 243 236 207 201 200 176 169 170 168 160 153 154 153 162 164 158 148 175 167 154 152 141 128 154 213 292 284 315 328 317 313 332 331 319 320 329 331 333 336 332 317
182 163 169 213 208 248 137 216 251 251 114 184 173 165 169 184 168 160 158 159 164 170 168 158 161 166 176 160 163 143 143 180 216 261 285 289 283 289 291 290 309 339 347 337 334 331 315 340 335
204 177 195 138 29 79 232 285 306 181 229 162 192 177 189 177 175 169 167 166 168 174 174 155 162 177 178 173 165 159 164 171 215 248 274 285 294 290 307 327 332 341 350 344 339 323 336 344 318
156 167 97 5 150 228 276 280 244 226 219 206 196 204 188 173 176 174 176 167 169 171 165 146 160 178 181 169 174 177 186 188 216 239 270 282 292 310 314 335 335 343 344 344 342 335 319 340 327
86 218 54 123 139 171 184 258 222 220 197 200 208 201 183 173 175 180 173 165 166 165 163 156 165 169 175 175 173 169 193 207 211 225 262 294 305 308 316 309 318 342 345 348 340 333 332 338 332
165 201 157 145 253 183 165 264 257 214 229 149 170 171 178 165 173 168 161 160 166 166 167 163 173 171 179 172 165 186 198 207 212 215 261 274 286 307 297 302 320 346 350 344 343 329 330 331 344